Regional Weather Roundup
Issued by NWS State College, PA

Home | Current Version | Previous Version | Text Only | Print | Product List | Glossary On
Versions: 1 2 3 4 5 6 7 8 9 10 11 12 13 14 15 16 17 18 19 20 21 22 23 24 25 26 27 28 29 30 31 32 33 34 35 36 37 38 39 40 41 42 43 44 45 46 47 48 49 50
000
ASUS41 KCTP 280310
RWRCTP

REGIONAL WEATHER ROUNDUP
NATIONAL WEATHER SERVICE STATE COLLEGE PA
1100 PM EDT MON APR 27 2015

Note: "fair" indicates few or no clouds below 12,000 feet with no
significant weather and/or obstructions to visibility.

* = STATION THAT DOES NOT REPORT PRECIPITATION /E.G. RAIN...SNOW...ETC/
    THUNDER OR FOG.

PAZ002>004-007>009-013>016-020>023-029>032-280400-
WESTERN PENNSYLVANIA

CITY           SKY/WX    TMP DP  RH WIND       PRES   REMARKS
ERIE           CLOUDY    42  37  82 W6        30.02S
MEADVILLE      CLOUDY    40  35  83 W7        30.00S
FRANKLIN*      CLOUDY    39  34  81 NW6       30.01R
NEW CASTLE     CLOUDY    42  37  82 CALM      30.04R
BEAVER COUNTY  NOT AVBL
BUTLER*        CLOUDY    39  36  87 NW5       30.03R
PITTSBURGH INT CLOUDY    42  36  79 NW8       30.02R
PITTSBURGH     CLOUDY    42  32  67 NW9       30.00R
INDIANA*       CLOUDY    41  37  87 CALM      30.01R
LATROBE        NOT AVBL
WASHINGTON CO* CLOUDY    41  32  70 CALM      30.03S
$$

PAZ004>006-010>012-017>019-024>028-033>037-041-042-045-046-049>053-280400-
CENTRAL PENNSYLVANIA

CITY           SKY/WX    TMP DP  RH WIND       PRES   REMARKS
BRADFORD       LGT RAIN  38  35  89 NW8       29.94S
DUBOIS         CLOUDY    42  33  70 NW10      29.94S
CLEARFIELD     CLOUDY    41  34  76 NW9       29.93S
JOHNSTOWN      LGT RAIN  37  34  89 NW9       29.93R
ALTOONA        CLOUDY    42  33  70 NW10      29.93R
STATE COLLEGE  CLOUDY    44  34  69 NW7       29.90F
WILLIAMSPORT   CLOUDY    48  36  63 NW12G18   29.88S
SELINSGROVE    CLOUDY    50  34  54 NW12      29.87S
FT INDIANTOWN  PTCLDY    50  32  50 N13G21    29.83S
CAPITAL CITY   CLEAR     50  33  52 NW8       29.86S
HARRISBURG     PTCLDY    49  33  54 NW9       29.85R
YORK           PTCLDY    47  37  68 NW9       29.86R
$$

PAZ038>040-043-044-047-048-054-055-060>062-067>071-280400-
EASTERN PENNSYLVANIA

CITY           SKY/WX    TMP DP  RH WIND       PRES   REMARKS
SCRANTON       CLOUDY    47  37  68 N12       29.83R
MOUNT POCONO   CLOUDY    43  34  70 NW20G25   29.77R
ALLENTOWN      CLOUDY    51  34  52 NW10      29.80S
QUAKERTOWN*    MOCLDY    48  32  53 N8        29.80S
READING        CLOUDY    50  33  52 NW14      29.81S
LANCASTER      CLEAR     47  32  56 NW8       29.83R
COATESVILLE    CLEAR     48  32  53 N8        29.81S
POTTSTOWN      CLOUDY    49  33  54 NW7       29.81S
BLUE BELL      PTCLDY    52  34  50 NW3       29.78S
DOYLESTOWN     CLOUDY    49  32  52 NW8       29.77S
WILLOW GROVE   NOT AVBL
NORTH PHILA    CLOUDY    53  30  41 NW13      29.79S
PHILADELPHIA   PTCLDY    53  33  46 N16       29.80R
$$


USA.gov is the U.S. government's official web portal to all federal, state and local government web resources and services.